Location: Saint-Usage
(47.1052°N, 5.2587°E)
Time: 09:38:20
(UTC+01:00)

NOAA 19 - Pass Details

Date: 07 December 2021
Orbit: 841 x 860 km, 99.2° (Epoch: 26 January)

Event Time Altitude Azimuth Distance (km) Brightness Sun altitude
Rises 18:57:56 0° 156° (SSE) 3,384 8.2 -20.9°
Reaches altitude 10° 19:00:17 10° 154° (SSE) 2,455 7.5 -21.3°
Maximum altitude 19:05:42 72° 72° (ENE) 889 5.0 -22.2°
Drops below altitude 10° 19:11:11 10° 349° (NNW) 2,481 7.7 -23.1°
Sets 19:13:34 0° 347° (NNW) 3,423 8.4 -23.5°
